Location: Antioch Church
(34.9543°N, 88.5145°W)
Time: 09:40:20
(UTC+00:00)

Cosmos 1943 Rocket - Pass Details

Date: 11 December 2019
Orbit: 812 x 843 km, 71.0° (Epoch: 28 January)

Event Time Altitude Azimuth Distance (km) Brightness Sun altitude
Rises 00:45:54 0° 347° (NNW) 3,395 5.4 -24.5°
Reaches altitude 10° 00:48:32 10° 355° (N) 2,453 4.5 -25.1°
Enters shadow 00:49:47 16° 2° (N) 2,035 4.0 -25.3°
